TimeCDT,TemperatureF,Dew PointF,Humidity,Sea Level PressureIn,VisibilityMPH,Wind Direction,Wind SpeedMPH,Gust SpeedMPH,PrecipitationIn,Events,Conditions,WindDirDegrees,DateUTC
12:13 AM,44.6,41.0,87,29.82,10.0,WSW,8.1,-,N/A,,Clear,250,2013-09-29 05:13:00
12:33 AM,44.6,41.0,87,29.82,10.0,WSW,5.8,-,N/A,,Clear,250,2013-09-29 05:33:00
12:52 AM,44.6,41.0,87,29.83,10.0,WSW,6.9,-,N/A,,Scattered Clouds,250,2013-09-29 05:52:00
1:13 AM,44.6,42.8,93,29.83,10.0,WSW,5.8,-,N/A,,Mostly Cloudy,250,2013-09-29 06:13:00
1:33 AM,44.6,42.8,93,29.83,10.0,WSW,3.5,-,N/A,,Mostly Cloudy,240,2013-09-29 06:33:00
1:52 AM,42.8,41.0,93,29.83,10.0,SW,3.5,-,N/A,,Scattered Clouds,220,2013-09-29 06:52:00
2:13 AM,42.8,41.0,93,29.83,10.0,South,3.5,-,N/A,,Scattered Clouds,180,2013-09-29 07:13:00
2:33 AM,42.8,39.2,87,29.82,10.0,South,6.9,-,N/A,,Scattered Clouds,190,2013-09-29 07:33:00
2:52 AM,42.8,41.0,93,29.82,10.0,SSW,4.6,-,N/A,,Scattered Clouds,210,2013-09-29 07:52:00
3:13 AM,42.8,41.0,93,29.82,10.0,SSW,3.5,-,N/A,,Clear,200,2013-09-29 08:13:00
3:33 AM,42.8,41.0,93,29.81,10.0,Calm,Calm,-,N/A,,Clear,0,2013-09-29 08:33:00
3:52 AM,44.6,42.8,93,29.81,10.0,SSW,3.5,-,N/A,,Clear,210,2013-09-29 08:52:00
4:13 AM,42.8,41.0,93,29.81,10.0,SSW,3.5,-,N/A,,Clear,200,2013-09-29 09:13:00
4:33 AM,42.8,41.0,93,29.82,10.0,SW,4.6,-,N/A,,Clear,220,2013-09-29 09:33:00
4:52 AM,42.8,41.0,93,29.82,10.0,SW,5.8,-,N/A,,Clear,220,2013-09-29 09:52:00
5:13 AM,42.8,41.0,93,29.82,10.0,SW,4.6,-,N/A,,Clear,220,2013-09-29 10:13:00
5:33 AM,42.8,39.2,87,29.82,10.0,SSW,4.6,-,N/A,,Clear,210,2013-09-29 10:33:00
5:52 AM,42.8,39.2,87,29.83,10.0,SSW,5.8,-,N/A,,Clear,210,2013-09-29 10:52:00
6:13 AM,42.8,39.2,87,29.84,10.0,SSW,5.8,-,N/A,,Clear,210,2013-09-29 11:13:00
6:32 AM,42.8,39.2,87,29.84,10.0,SSW,5.8,-,N/A,,Clear,210,2013-09-29 11:32:00
6:53 AM,41.0,39.2,93,29.85,10.0,SSW,5.8,-,N/A,,Clear,210,2013-09-29 11:53:00
7:12 AM,41.0,39.2,93,29.85,10.0,SSW,4.6,-,N/A,,Clear,210,2013-09-29 12:12:00
7:33 AM,41.0,39.2,93,29.85,10.0,SSW,3.5,-,N/A,,Clear,210,2013-09-29 12:33:00
7:53 AM,42.8,41.0,93,29.86,10.0,South,3.5,-,N/A,,Clear,190,2013-09-29 12:53:00
8:12 AM,44.6,41.0,87,29.86,10.0,Calm,Calm,-,N/A,,Clear,0,2013-09-29 13:12:00
8:33 AM,44.6,42.8,93,29.86,10.0,SSW,3.5,-,N/A,,Clear,210,2013-09-29 13:33:00
8:53 AM,46.4,42.8,87,29.86,10.0,SSW,4.6,-,N/A,,Clear,200,2013-09-29 13:53:00
9:12 AM,48.2,44.6,87,29.87,10.0,SSW,4.6,-,N/A,,Clear,210,2013-09-29 14:12:00
9:33 AM,51.8,44.6,76,29.87,10.0,SSW,4.6,-,N/A,,Clear,210,2013-09-29 14:33:00
9:53 AM,53.6,44.6,72,29.87,10.0,SSW,4.6,-,N/A,,Clear,210,2013-09-29 14:53:00
10:12 AM,53.6,44.6,72,29.86,10.0,SSW,4.6,-,N/A,,Clear,210,2013-09-29 15:12:00
10:33 AM,55.4,44.6,67,29.87,10.0,SSW,5.8,-,N/A,,Clear,210,2013-09-29 15:33:00
10:53 AM,57.2,44.6,63,29.86,10.0,SSW,5.8,-,N/A,,Clear,200,2013-09-29 15:53:00
11:12 AM,59.0,44.6,59,29.86,10.0,SW,5.8,-,N/A,,Clear,220,2013-09-29 16:12:00
11:33 AM,60.8,44.6,55,29.85,10.0,South,6.9,-,N/A,,Clear,190,2013-09-29 16:33:00
11:52 AM,62.6,44.6,52,29.85,10.0,South,6.9,-,N/A,,Clear,190,2013-09-29 16:52:00
12:13 PM,62.6,42.8,48,29.85,10.0,SSW,9.2,-,N/A,,Clear,210,2013-09-29 17:13:00
12:32 PM,64.4,42.8,45,29.85,10.0,SSW,11.5,-,N/A,,Clear,210,2013-09-29 17:32:00
12:53 PM,66.2,39.2,37,29.84,10.0,SSW,11.5,-,N/A,,Clear,210,2013-09-29 17:53:00
1:12 PM,66.2,39.2,37,29.83,10.0,SSW,11.5,19.6,N/A,,Clear,210,2013-09-29 18:12:00
1:33 PM,66.2,41.0,40,29.83,10.0,SSW,15.0,18.4,N/A,,Clear,210,2013-09-29 18:33:00
1:53 PM,66.2,42.8,43,29.82,10.0,WSW,10.4,17.3,N/A,,Clear,240,2013-09-29 18:53:00
2:12 PM,68.0,39.2,35,29.82,10.0,SW,15.0,19.6,N/A,,Clear,230,2013-09-29 19:12:00
2:33 PM,68.0,39.2,35,29.82,10.0,SW,13.8,20.7,N/A,,Clear,230,2013-09-29 19:33:00
2:53 PM,68.0,39.2,35,29.81,10.0,SW,13.8,20.7,N/A,,Clear,230,2013-09-29 19:53:00
3:12 PM,69.8,39.2,33,29.81,10.0,SSW,9.2,-,N/A,,Clear,210,2013-09-29 20:12:00
3:33 PM,68.0,39.2,35,29.81,10.0,WSW,9.2,19.6,N/A,,Clear,240,2013-09-29 20:33:00
3:52 PM,69.8,39.2,33,29.81,10.0,SW,9.2,-,N/A,,Clear,230,2013-09-29 20:52:00
4:13 PM,68.0,39.2,35,29.80,10.0,SW,9.2,-,N/A,,Clear,220,2013-09-29 21:13:00
4:32 PM,66.2,39.2,37,29.80,10.0,SW,9.2,-,N/A,,Clear,220,2013-09-29 21:32:00
4:52 PM,64.4,41.0,42,29.80,10.0,SSW,5.8,-,N/A,,Clear,200,2013-09-29 21:52:00
5:12 PM,68.0,41.0,37,29.79,10.0,SSW,9.2,-,N/A,,Clear,210,2013-09-29 22:12:00
5:33 PM,64.4,41.0,42,29.79,10.0,South,6.9,-,N/A,,Clear,180,2013-09-29 22:33:00
5:52 PM,64.4,42.8,45,29.79,10.0,South,8.1,-,N/A,,Clear,170,2013-09-29 22:52:00
6:12 PM,62.6,44.6,52,29.79,10.0,South,6.9,-,N/A,,Clear,170,2013-09-29 23:12:00
6:33 PM,62.6,44.6,52,29.79,10.0,SSE,6.9,-,N/A,,Clear,160,2013-09-29 23:33:00
6:52 PM,60.8,44.6,55,29.79,10.0,SSE,8.1,-,N/A,,Clear,160,2013-09-29 23:52:00
7:12 PM,60.8,44.6,55,29.79,10.0,SSE,6.9,-,N/A,,Clear,160,2013-09-30 00:12:00
7:33 PM,59.0,44.6,59,29.80,10.0,SSE,6.9,-,N/A,,Clear,160,2013-09-30 00:33:00
7:52 PM,57.2,44.6,63,29.79,10.0,SSE,6.9,-,N/A,,Clear,160,2013-09-30 00:52:00
8:13 PM,57.2,44.6,63,29.80,10.0,SSE,6.9,-,N/A,,Clear,160,2013-09-30 01:13:00
8:33 PM,57.2,44.6,63,29.80,10.0,SSE,6.9,-,N/A,,Clear,160,2013-09-30 01:33:00
8:52 PM,57.2,44.6,63,29.80,10.0,SSE,6.9,-,N/A,,Clear,160,2013-09-30 01:52:00
9:13 PM,55.4,44.6,67,29.80,10.0,SSE,6.9,-,N/A,,Clear,160,2013-09-30 02:13:00
9:33 PM,55.4,44.6,67,29.80,10.0,SSE,6.9,-,N/A,,Clear,160,2013-09-30 02:33:00
9:52 PM,55.4,44.6,67,29.80,10.0,South,6.9,-,N/A,,Clear,170,2013-09-30 02:52:00
10:13 PM,55.4,44.6,67,29.79,10.0,SSE,6.9,-,N/A,,Clear,160,2013-09-30 03:13:00
10:33 PM,55.4,44.6,67,29.79,10.0,SSE,4.6,-,N/A,,Clear,160,2013-09-30 03:33:00
10:52 PM,53.6,44.6,72,29.78,10.0,SSE,4.6,-,N/A,,Clear,150,2013-09-30 03:52:00
11:13 PM,53.6,44.6,72,29.77,10.0,SSE,5.8,-,N/A,,Clear,150,2013-09-30 04:13:00
11:33 PM,55.4,44.6,67,29.75,10.0,SSE,8.1,-,N/A,,Clear,160,2013-09-30 04:33:00
11:52 PM,55.4,44.6,67,29.75,10.0,South,8.1,-,N/A,,Clear,170,2013-09-30 04:52:00